Flag for Germany Weather past 2 weeks in Augsburg, Bavaria, Germany

Now
45 °F

Fog.


Feels Like: 45 °F
Forecast: 38 / 51 °F
Wind: 1 mph from Northeast

Location: Augsburg

Current Time: Oct 26, 2014 at 4:11:00 AM

Latest Report: Oct 26, 2014 at 3:00 AM


Visibility: 2 mi

Pressure: 30.31 "Hg

Humidity: 99%

Dew point: 45 °F

Location of AugsburgLocation

Historic Weather in Augsburg — Graph

°F

Augsburg temperature yesterday

Maximum temperature yesterday: 47 °F (at 2:00 PM)
Minimum temperature yesterday: 35 °F (at 4:00 AM)
Average temperature yesterday: 42 °F

Past Weeks' High & Low Weather Summary

 TemperatureHumidityPressure
High72 °F (Oct 19, 4:00 PM)100% (Oct 11, 6:00 AM)30.31 "Hg (Oct 11, 6:00 AM)
Low35 °F (Oct 25, 4:00 AM)50% (Oct 19, 4:00 PM)29.64 "Hg (Oct 21, 8:00 PM)
Average53 °F89%30.02 "Hg
* Reported Oct 11 4:00 AM — Oct 26 3:00 AM, Augsburg, Weather by CustomWeather, © 2014

Note: Actual official high and low records may vary slightly from our data, if they occured in-between our weather recording intervals... More about our weather records

Advertising

Augsburg weather history for previous 24 hours

 ConditionsComfort  
Time TempWeatherWind HumidityBarometerVisibility
3:00 AM
Oct 26
45 °FFog.1 mph99%30.31 "Hg2 mi
2:00 AM45 °FFog.2 mph100%30.31 "Hg2 mi
2:00 AM46 °FFog.1 mph99%30.30 "Hg2 mi
1:00 AM45 °FFog.1 mph99%30.29 "Hg2 mi
12:00 AM46 °FFog.1 mph99%30.28 "Hg2 mi
10:00 PM
Oct 25
46 °FFog.2 mph99%30.27 "Hg2 mi
9:00 PM46 °FFog.2 mph98%30.25 "Hg2 mi
8:00 PM46 °FOvercast.1 mph98%30.24 "Hg3 mi
7:00 PM46 °FOvercast.1 mph97%30.23 "Hg3 mi
6:00 PM47 °FLight rain. Partly sunny.1 mph96%30.22 "Hg3 mi
5:00 PM47 °FOvercast.3 mph94%30.21 "Hg4 mi
4:00 PM47 °FDrizzle. Low clouds.2 mph94%30.19 "Hg4 mi
3:00 PM47 °FLight rain. Overcast.2 mph93%30.19 "Hg4 mi
2:00 PM47 °FOvercast.2 mph85%30.19 "Hg8 mi
1:00 PM46 °FOvercast.1 mph81%30.19 "Hg11 mi
12:00 PM44 °FOvercast.2 mph89%30.20 "Hg11 mi
11:00 AM41 °FOvercast.2 mph93%30.21 "Hg10 mi
10:00 AM38 °FLow clouds.1 mph97%30.21 "Hg7 mi
9:00 AM36 °FLow clouds.2 mph100%30.21 "Hg4 mi
8:00 AM36 °FLow clouds.2 mph100%30.20 "Hg2 mi
7:00 AM36 °FLow clouds.2 mph100%30.19 "Hg0 mi
6:00 AM37 °FLow clouds.1 mph100%30.19 "Hg0 mi
4:00 AM35 °FOvercast.2 mph100%30.19 "Hg0 mi
Weather by CustomWeather, © 2014

See weather overviewHow to use our weather pages